Temp
-13 -13 -14 -15 -15 -15 -15 -15 -15 -16 -16 -16 -17 -17 -18 -19 -20 -22 -24 -25 -25 -25 -25 -25 -24 -23 -22 -22 -20 -19 -19 -19 -18 -18 -18 -18 -17 -16 -16 -15 -15 -15 -14 -14 -14 -14 -13
-13 -14 -14 -15 -15 -15 -15 -16 -16 -16 -16 -17 -18 -19 -20 -21 -23 -26 -25 -25 -26 -26 -26 -26 -26 -25 -24 -23 -22 -20 -20 -19 -19 -18 -18 -18 -18 -17 -16 -15 -15 -15 -14 -14 -14 -14 -13
-13 -14 -14 -15 -15 -16 -16 -16 -16 -16 -17 -18 -19 -21 -22 -24 -26 -26 -26 -26 -26 -27 -27 -27 -27 -26 -26 -24 -23 -21 -20 -19 -19 -18 -18 -18 -18 -17 -16 -16 -15 -15 -15 -15 -14 -14 -14
-14 -14 -15 -16 -16 -16 -16 -16 -17 -17 -18 -19 -20 -21 -24 -26 -26 -26 -26 -26 -27 -28 -27 -27 -26 -26 -26 -25 -23 -22 -20 -20 -19 -19 -19 -19 -19 -18 -17 -16 -16 -15 -15 -15 -15 -15 -13
-14 -14 -15 -16 -16 -16 -16 -17 -17 -17 -19 -19 -20 -22 -26 -26 -26 -26 -27 -27 -27 -27 -28 -27 -26 -26 -26 -24 -23 -21 -19 -20 -20 -19 -19 -18 -18 -18 -17 -17 -16 -15 -15 -14 -14 -15 -14
-14 -15 -16 -16 -16 -16 -16 -17 -17 -18 -19 -19 -20 -22 -26 -26 -26 -26 -26 -27 -27 -27 -27 -27 -26 -26 -25 -23 -22 -20 -20 -20 -19 -19 -18 -18 -18 -18 -17 -17 -16 -15 -14 -14 -14 -14 -13
-14 -15 -16 -15 -16 -16 -17 -18 -18 -19 -19 -20 -21 -22 -25 -25 -25 -26 -26 -26 -27 -27 -27 -27 -27 -26 -24 -23 -22 -21 -20 -20 -19 -19 -18 -18 -18 -17 -16 -16 -16 -15 -15 -15 -15 -15 -14
-14 -15 -16 -16 -16 -16 -17 -19 -19 -20 -20 -21 -21 -22 -24 -26 -25 -25 -26 -26 -27 -27 -26 -27 -26 -25 -24 -22 -22 -21 -20 -19 -19 -18 -19 -18 -18 -18 -18 -17 -16 -15 -15 -15 -15 -14 -14
-15 -15 -16 -16 -16 -16 -17 -19 -19 -20 -20 -21 -21 -24 -24 -25 -25 -26 -26 -26 -26 -26 -26 -25 -25 -24 -23 -21 -21 -19 -19 -18 -19 -18 -18 -18 -18 -18 -18 -17 -16 -16 -15 -15 -15 -15 -14
-15 -15 -16 -15 -16 -16 -17 -19 -19 -20 -20 -20 -21 -23 -23 -23 -24 -25 -25 -25 -24 -24 -24 -24 -24 -23 -22 -21 -20 -20 -20 -19 -19 -19 -18 -18 -18 -18 -18 -17 -17 -16 -16 -15 -15 -15 -14
-15 -15 -15 -15 -16 -16 -17 -18 -19 -19 -20 -20 -21 -22 -22 -24 -24 -25 -24 -24 -24 -23 -23 -24 -23 -22 -21 -20 -20 -20 -19 -19 -19 -18 -18 -18 -18 -18 -18 -18 -18 -17 -17 -16 -16 -15 -14
-15 -15 -15 -15 -16 -16 -17 -18 -19 -19 -20 -20 -21 -21 -22 -23 -23 -23 -23 -23 -23 -22 -23 -23 -22 -21 -21 -20 -20 -20 -19 -19 -19 -18 -18 -18 -18 -18 -18 -17 -18 -18 -17 -16 -16 -15 -15
-15 -15 -15 -15 -16 -16 -17 -17 -19 -19 -19 -20 -20 -20 -21 -21 -22 -22 -22 -22 -21 -21 -22 -21 -21 -21 -21 -20 -20 -19 -19 -19 -19 -18 -18 -18 -18 -18 -17 -17 -17 -18 -17 -17 -16 -16 -15
-15 -15 -15 -15 -15 -16 -17 -17 -19 -19 -19 -20 -20 -20 -20 -20 -20 -21 -21 -21 -20 -21 -21 -21 -20 -20 -20 -20 -20 -20 -19 -19 -19 -19 -19 -19 -19 -18 -17 -17 -17 -18 -17 -16 -16 -16 -15
-15 -15 -15 -15 -15 -16 -17 -17 -18 -19 -19 -19 -20 -20 -20 -20 -20 -20 -20 -20 -20 -20 -20 -20 -20 -19 -20 -20 -19 -19 -19 -19 -19 -19 -19 -19 -19 -18 -18 -18 -18 -17 -17 -17 -17 -17 -16
-15 -15 -16 -15 -15 -15 -16 -17 -17 -18 -19 -19 -19 -19 -20 -20 -20 -20 -20 -20 -19 -20 -20 -20 -20 -19 -20 -19 -19 -19 -19 -19 -19 -19 -19 -19 -19 -19 -18 -18 -17 -18 -18 -17 -17 -17 -16
-15 -16 -16 -16 -15 -15 -16 -17 -17 -18 -19 -19 -19 -19 -19 -19 -20 -20 -20 -19 -19 -19 -19 -20 -20 -20 -19 -19 -19 -19 -19 -19 -19 -19 -19 -19 -19 -19 -19 -18 -18 -18 -17 -17 -17 -16 -16
-15 -16 -16 -16 -15 -15 -16 -17 -17 -17 -18 -19 -19 -19 -19 -19 -19 -20 -19 -19 -19 -19 -19 -19 -19 -19 -19 -19 -19 -19 -19 -19 -19 -19 -19 -19 -19 -19 -19 -18 -18 -18 -18 -17 -17 -16 -16
-15 -16 -16 -16 -16 -15 -16 -17 -17 -17 -18 -18 -19 -19 -19 -19 -19 -19 -19 -19 -19 -19 -19 -19 -19 -19 -19 -19 -19 -19 -19 -19 -20 -20 -20 -19 -19 -19 -18 -18 -18 -18 -18 -18 -17 -17 -16
-15 -16 -16 -16 -16 -16 -16 -17 -17 -18 -18 -18 -19 -19 -19 -19 -19 -19 -19 -19 -19 -19 -19 -19 -19 -19 -19 -19 -19 -19 -19 -20 -20 -20 -20 -20 -19 -19 -19 -18 -18 -18 -18 -17 -17 -17 -17
-16 -16 -16 -16 -16 -16 -16 -17 -18 -18 -18 -18 -19 -19 -19 -19 -19 -19 -19 -19 -19 -19 -19 -19 -19 -19 -19 -19 -19 -19 -20 -20 -20 -20 -20 -20 -19 -19 -19 -19 -18 -18 -17 -17 -17 -17 -17
-16 -16 -16 -17 -17 -17 -16 -16 -18 -18 -18 -18 -18 -19 -19 -19 -19 -19 -19 -19 -19 -19 -19 -19 -19 -19 -19 -19 -20 -20 -20 -20 -19 -20 -20 -20 -19 -19 -19 -18 -18 -18 -17 -17 -17 -17 -17
-16 -16 -17 -17 -17 -17 -17 -16 -18 -19 -18 -19 -18 -19 -19 -19 -19 -19 -19 -19 -19 -19 -19 -19 -19 -19 -19 -20 -20 -20 -20 -20 -19 -19 -19 -19 -19 -19 -18 -18 -18 -18 -17 -17 -17 -17 -16
-16 -17 -17 -18 -18 -18 -17 -17 -17 -19 -19 -18 -19 -19 -19 -19 -19 -19 -19 -19 -19 -19 -19 -19 -19 -19 -19 -19 -20 -20 -20 -19 -19 -19 -19 -18 -18 -18 -18 -18 -18 -18 -17 -17 -17 -17 -17
-17 -18 -18 -18 -18 -18 -18 -17 -17 -18 -19 -19 -19 -19 -19 -19 -19 -19 -20 -19 -20 -19 -19 -19 -19 -19 -19 -19 -20 -20 -19 -19 -19 -19 -19 -18 -18 -18 -18 -18 -18 -18 -17 -17 -17 -17 -17
-18 -18 -19 -18 -19 -18 -18 -17 -18 -19 -19 -20 -19 -19 -19 -19 -19 -19 -19 -20 -20 -20 -20 -19 -19 -19 -19 -19 -20 -20 -20 -19 -19 -19 -19 -18 -18 -18 -18 -18 -18 -17 -17 -17 -17 -17 -17
-18 -18 -19 -19 -19 -19 -19 -18 -18 -20 -20 -20 -20 -19 -19 -19 -19 -19 -19 -19 -20 -20 -20 -20 -20 -20 -20 -19 -19 -20 -20 -20 -20 -19 -19 -19 -19 -18 -18 -18 -18 -18 -17 -17 -17 -17 -17
-19 -19 -19 -20 -20 -19 -19 -18 -18 -20 -21 -21 -20 -20 -19 -19 -19 -19 -20 -20 -20 -20 -20 -20 -20 -20 -20 -20 -20 -20 -20 -20 -20 -20 -19 -19 -19 -18 -18 -18 -18 -18 -17 -17 -17 -17 -18
-19 -19 -19 -20 -20 -20 -19 -19 -19 -20 -20 -21 -20 -20 -20 -19 -19 -19 -19 -20 -20 -20 -20 -20 -20 -20 -20 -20 -20 -20 -20 -20 -20 -20 -19 -19 -19 -19 -19 -18 -18 -18 -18 -17 -18 -18 -18
Height
5763 5751 5740 5727 5713 5699 5687 5675 5663 5651 5641 5630 5616 5602 5589 5576 5564 5554 5550 5549 5548 5548 5548 5548 5551 5556 5565 5574 5597 5617 5627 5637 5646 5658 5668 5676 5687 5697 5707 5716 5723 5732 5741 5748 5754 5761 5769
5756 5744 5731 5717 5704 5690 5680 5666 5653 5642 5630 5614 5599 5583 5567 5552 5541 5537 5537 5537 5537 5538 5537 5534 5534 5535 5543 5558 5583 5600 5616 5628 5639 5650 5660 5668 5681 5692 5698 5707 5717 5725 5733 5740 5746 5754 5762
5749 5736 5724 5710 5696 5683 5672 5660 5646 5632 5618 5601 5584 5565 5547 5536 5531 5529 5529 5530 5530 5530 5529 5528 5526 5527 5530 5545 5568 5589 5607 5617 5633 5645 5655 5663 5672 5681 5693 5701 5709 5718 5725 5732 5739 5748 5756
5743 5731 5718 5705 5689 5676 5666 5652 5640 5625 5609 5590 5568 5549 5535 5529 5526 5525 5525 5524 5523 5523 5523 5522 5522 5522 5527 5535 5560 5585 5603 5617 5628 5638 5648 5655 5664 5673 5683 5694 5701 5709 5717 5725 5735 5742 5750
5739 5727 5713 5698 5684 5671 5659 5648 5634 5619 5600 5580 5558 5540 5531 5527 5524 5522 5521 5519 5517 5518 5518 5518 5517 5519 5524 5538 5564 5588 5598 5615 5625 5635 5644 5652 5659 5669 5678 5686 5694 5702 5715 5723 5731 5737 5743
5736 5723 5708 5693 5680 5668 5655 5644 5631 5615 5596 5572 5551 5535 5528 5524 5521 5519 5517 5514 5513 5513 5514 5513 5514 5519 5528 5546 5568 5581 5599 5613 5623 5631 5641 5647 5656 5662 5670 5680 5694 5704 5711 5719 5725 5732 5739
5731 5719 5705 5691 5676 5665 5652 5641 5629 5612 5595 5574 5552 5534 5525 5522 5518 5517 5515 5512 5512 5511 5510 5510 5515 5520 5533 5553 5571 5589 5601 5613 5621 5630 5640 5645 5652 5661 5673 5680 5685 5696 5704 5712 5718 5725 5732
5727 5716 5701 5686 5674 5662 5651 5641 5628 5615 5597 5576 5555 5537 5525 5520 5517 5515 5513 5511 5509 5509 5508 5512 5518 5530 5543 5559 5577 5594 5606 5612 5618 5628 5636 5643 5651 5659 5665 5674 5683 5690 5696 5704 5712 5721 5727
5725 5711 5697 5683 5672 5661 5651 5641 5630 5618 5602 5583 5563 5547 5534 5522 5518 5516 5513 5511 5509 5510 5515 5522 5531 5544 5555 5568 5582 5595 5607 5609 5617 5629 5636 5643 5651 5656 5662 5670 5679 5685 5692 5700 5708 5716 5722
5721 5709 5695 5682 5671 5661 5652 5643 5632 5622 5608 5593 5576 5562 5547 5531 5523 5520 5517 5517 5519 5523 5532 5542 5548 5557 5567 5578 5589 5600 5609 5615 5621 5627 5633 5642 5649 5655 5660 5666 5674 5681 5687 5695 5702 5710 5716
5719 5706 5694 5682 5670 5661 5653 5644 5635 5625 5615 5604 5589 5576 5565 5550 5541 5536 5534 5533 5535 5540 5545 5555 5560 5568 5579 5588 5595 5605 5609 5617 5622 5627 5635 5642 5647 5654 5658 5665 5671 5677 5683 5691 5698 5704 5710
5716 5705 5693 5682 5670 5661 5654 5646 5638 5629 5621 5612 5601 5590 5581 5570 5563 5559 5555 5553 5554 5555 5556 5567 5573 5579 5587 5594 5600 5606 5611 5620 5624 5629 5635 5640 5645 5652 5658 5663 5669 5674 5680 5687 5693 5699 5703
5714 5703 5692 5681 5670 5661 5653 5647 5640 5633 5627 5619 5612 5602 5595 5587 5582 5576 5573 5572 5572 5568 5575 5582 5587 5592 5595 5600 5606 5611 5615 5618 5625 5630 5635 5640 5644 5650 5655 5660 5666 5671 5677 5683 5689 5692 5698
5712 5701 5691 5679 5670 5661 5656 5648 5642 5636 5632 5626 5620 5612 5607 5600 5595 5591 5589 5590 5585 5588 5591 5594 5596 5599 5603 5607 5610 5616 5619 5623 5627 5632 5635 5639 5644 5647 5653 5658 5662 5667 5671 5677 5681 5686 5692
5709 5698 5690 5681 5672 5663 5657 5651 5644 5639 5635 5631 5625 5619 5615 5611 5607 5605 5603 5603 5598 5599 5600 5603 5605 5607 5609 5612 5617 5618 5623 5626 5629 5635 5638 5640 5644 5647 5651 5656 5662 5665 5670 5675 5679 5683 5688
5707 5697 5688 5680 5671 5664 5657 5653 5647 5641 5636 5634 5630 5624 5621 5618 5615 5614 5614 5611 5608 5607 5608 5609 5612 5613 5615 5617 5620 5623 5626 5630 5632 5634 5638 5641 5644 5648 5650 5654 5659 5663 5668 5672 5676 5680 5684
5703 5694 5686 5678 5671 5663 5659 5655 5650 5644 5638 5635 5633 5629 5625 5623 5620 5619 5620 5618 5615 5614 5614 5615 5615 5618 5620 5622 5623 5625 5628 5631 5633 5635 5637 5639 5644 5649 5651 5654 5656 5660 5664 5668 5673 5676 5679
5699 5691 5683 5676 5669 5662 5657 5655 5651 5646 5640 5636 5635 5633 5629 5626 5625 5622 5623 5622 5620 5619 5619 5619 5620 5621 5623 5624 5625 5627 5629 5631 5633 5635 5637 5640 5642 5645 5649 5652 5654 5657 5661 5665 5670 5675 5677
5695 5688 5680 5672 5667 5661 5653 5651 5649 5645 5642 5637 5635 5634 5632 5628 5627 5624 5624 5624 5622 5621 5621 5621 5622 5623 5623 5625 5627 5627 5628 5630 5632 5634 5636 5639 5642 5644 5647 5650 5652 5655 5658 5662 5666 5670 5673
5689 5683 5676 5667 5661 5656 5651 5647 5646 5643 5640 5638 5635 5634 5633 5630 5628 5626 5626 5626 5624 5623 5623 5623 5623 5623 5624 5625 5626 5627 5628 5629 5631 5633 5636 5638 5640 5642 5646 5648 5650 5653 5656 5659 5663 5667 5669
5683 5677 5669 5663 5657 5653 5649 5645 5643 5641 5638 5636 5635 5633 5632 5631 5630 5628 5627 5626 5625 5625 5624 5623 5623 5623 5623 5624 5625 5626 5628 5629 5631 5633 5634 5636 5638 5641 5643 5646 5648 5651 5654 5657 5660 5662 5666
5676 5670 5664 5658 5652 5649 5645 5642 5638 5637 5635 5632 5631 5630 5630 5629 5628 5627 5627 5626 5624 5624 5624 5623 5622 5622 5622 5622 5624 5624 5626 5628 5630 5632 5633 5635 5638 5640 5642 5645 5647 5650 5653 5656 5659 5661 5662
5668 5662 5657 5652 5647 5642 5640 5635 5631 5629 5630 5628 5626 5625 5625 5625 5625 5625 5624 5624 5624 5623 5622 5622 5621 5621 5620 5621 5621 5622 5624 5626 5629 5631 5632 5634 5636 5639 5641 5643 5646 5649 5651 5653 5655 5656 5659
5661 5654 5650 5645 5641 5636 5630 5628 5625 5622 5621 5621 5620 5619 5618 5620 5619 5619 5619 5620 5620 5620 5620 5620 5620 5619 5619 5619 5620 5621 5623 5624 5626 5628 5630 5632 5634 5637 5639 5641 5644 5646 5648 5650 5652 5654 5655
5651 5645 5641 5638 5634 5629 5626 5621 5617 5614 5612 5611 5611 5611 5610 5611 5612 5613 5614 5613 5614 5616 5617 5617 5618 5618 5617 5617 5617 5619 5622 5623 5624 5626 5628 5630 5632 5634 5636 5639 5642 5643 5645 5648 5649 5651 5651
5641 5637 5632 5629 5625 5621 5618 5615 5609 5605 5603 5602 5601 5601 5602 5602 5604 5605 5607 5608 5608 5609 5611 5612 5614 5614 5615 5616 5616 5617 5619 5621 5623 5624 5626 5628 5629 5632 5634 5636 5638 5640 5642 5644 5645 5646 5646
5631 5626 5621 5619 5616 5612 5609 5606 5601 5596 5594 5592 5591 5590 5591 5592 5594 5595 5597 5600 5602 5603 5604 5606 5608 5610 5611 5613 5614 5615 5616 5618 5619 5621 5622 5624 5626 5628 5630 5632 5634 5636 5637 5639 5641 5645 5643
5620 5616 5612 5609 5606 5602 5599 5595 5592 5588 5585 5582 5580 5580 5581 5582 5583 5586 5587 5590 5593 5596 5597 5599 5602 5604 5606 5608 5609 5610 5612 5613 5614 5616 5617 5620 5622 5624 5626 5628 5630 5631 5633 5635 5637 5638 5639
5612 5604 5601 5598 5596 5594 5590 5586 5582 5578 5575 5572 5569 5570 5569 5571 5574 5574 5577 5580 5583 5584 5588 5591 5595 5597 5600 5602 5604 5605 5606 5608 5609 5611 5612 5615 5617 5619 5622 5624 5625 5626 5628 5630 5632 5633 5635
Wind_Speed
61 65 73 71 73 60 56 59 63 54 55 59 63 66 65 63 61 51 42 41 43 40 38 43 52 59 67 65 70 66 61 56 56 52 50 56 56 57 55 51 50 54 57 52 48 45 45
63 67 74 74 72 60 60 62 60 57 60 65 70 67 69 58 43 31 33 31 23 25 32 30 33 39 60 69 54 64 56 50 55 51 50 55 51 54 55 52 48 50 53 56 51 45 46
64 68 75 78 71 60 63 65 57 59 64 69 71 71 59 36 18 21 17 17 18 19 16 14 10 23 28 43 60 59 58 39 49 49 48 49 51 53 54 52 50 49 49 51 55 52 46
66 72 78 79 70 62 66 60 57 63 68 73 75 65 43 22 14 10 11 19 19 17 16 15 9 16 21 44 56 51 53 49 46 43 47 49 49 51 53 53 51 49 49 48 46 47 48
68 73 77 75 67 63 65 56 59 66 71 78 67 55 34 19 13 13 13 18 17 14 15 15 10 15 24 50 54 51 41 44 41 40 44 43 47 50 53 54 53 51 47 45 41 41 41
70 74 77 73 63 61 60 55 60 66 73 75 65 47 27 19 13 10 14 10 6 9 10 14 12 16 40 52 57 47 42 41 38 39 40 39 45 47 53 53 51 49 47 45 44 41 39
71 73 78 67 59 60 54 54 60 65 72 70 69 49 26 20 16 16 15 14 12 8 9 6 19 26 49 53 54 56 38 30 35 37 35 35 40 38 52 50 51 49 48 45 43 41 42
71 74 74 61 57 58 50 51 58 63 69 72 67 52 33 19 11 11 11 20 13 7 3 18 22 45 49 48 49 41 32 26 37 33 31 32 34 32 40 52 50 48 49 48 43 41 41
72 75 69 57 54 55 47 48 54 58 63 70 72 64 58 29 8 10 19 12 12 24 28 36 43 50 47 55 49 37 36 20 27 28 28 30 32 31 33 47 52 48 45 45 43 42 40
71 77 64 54 52 51 44 44 51 53 56 64 66 56 61 43 25 20 25 38 52 53 42 37 43 47 49 48 36 35 27 27 23 26 31 29 29 28 30 41 50 47 46 45 43 42 42
72 76 63 52 50 47 40 41 46 49 50 54 61 53 53 41 38 41 45 55 49 40 36 36 45 50 42 43 40 34 24 24 20 26 26 22 28 25 27 33 40 39 39 40 41 40 40
71 74 60 50 48 43 36 38 42 45 47 43 49 47 43 35 37 43 46 42 35 41 43 40 46 40 40 38 39 32 32 22 19 19 27 23 21 31 29 23 32 33 36 36 36 38 40
70 73 60 49 46 39 32 34 37 40 41 37 41 41 35 32 35 39 38 38 38 43 42 41 34 31 24 34 30 32 34 21 25 18 25 15 23 31 32 22 26 29 35 33 34 38 40
68 71 62 48 44 37 30 30 32 35 35 31 31 34 28 30 31 36 37 34 44 31 29 36 25 28 26 27 22 24 25 22 16 12 19 18 13 22 41 27 30 31 34 39 40 39 38
65 67 65 51 45 40 27 25 27 28 30 26 25 29 25 23 26 28 31 32 28 19 21 20 19 23 21 19 20 23 26 24 17 18 23 18 16 15 22 25 26 30 28 31 30 32 28
61 64 64 52 43 39 28 21 23 24 24 23 20 20 17 21 20 21 21 20 22 22 21 20 19 18 17 17 16 18 19 21 18 14 16 16 17 14 19 24 25 23 24 23 24 24 23
59 62 64 51 40 37 30 21 21 20 20 21 18 17 15 15 18 14 13 10 14 16 18 17 21 15 14 12 13 13 12 12 13 12 12 15 19 18 18 20 25 27 26 25 22 20 21
58 59 62 52 39 37 30 24 19 16 16 14 16 12 12 11 12 16 11 9 10 12 13 14 13 12 12 13 13 15 15 15 15 14 13 16 16 15 18 19 21 26 26 26 26 22 20
58 59 58 50 40 38 30 23 17 14 13 11 12 7 10 8 6 9 9 7 6 6 9 12 10 8 7 7 8 10 14 14 16 16 14 18 20 18 17 18 21 19 22 23 24 25 24
56 60 56 48 41 32 30 20 20 16 13 10 5 8 5 10 12 6 5 3 4 9 8 6 4 4 5 7 8 9 10 12 15 15 15 15 15 16 16 17 19 18 20 22 22 20 20
56 59 55 47 43 30 32 24 19 18 12 14 6 2 1 5 5 4 3 2 2 2 2 2 4 4 5 7 10 11 11 12 13 15 13 14 13 14 15 16 16 16 17 18 19 20 19
58 60 54 47 39 32 30 30 20 17 16 17 14 9 9 6 4 1 1 3 4 3 4 5 8 8 8 8 10 15 16 16 14 15 13 14 15 16 16 15 16 17 18 19 18 17 18
59 61 52 44 39 31 29 31 30 21 20 19 18 16 15 15 14 11 8 7 6 4 3 4 5 7 9 8 9 13 16 15 15 14 14 16 15 16 18 18 18 17 15 15 16 15 15
60 59 50 43 40 30 26 30 33 28 23 24 22 23 22 20 19 18 16 14 11 11 9 7 7 8 9 12 10 18 14 16 17 16 15 16 16 16 17 17 17 16 15 15 14 14 15
58 55 50 44 41 31 27 30 36 31 26 26 28 26 27 25 25 23 21 19 18 16 14 11 10 9 8 11 13 21 14 12 16 17 15 17 17 17 17 17 16 15 14 13 13 14 15
55 53 51 47 42 36 29 29 37 34 27 25 30 29 29 32 28 27 27 26 23 22 22 19 16 15 12 9 11 19 18 18 16 15 17 17 17 17 17 17 16 15 14 14 14 14 14
54 55 51 47 41 39 32 28 36 35 29 28 29 30 29 31 34 31 29 26 26 24 26 27 23 20 17 14 14 15 19 22 22 21 21 19 18 18 18 18 17 16 16 15 15 13 15
57 56 55 49 43 39 36 31 37 34 31 31 31 32 29 32 34 35 34 30 29 29 27 26 25 23 21 17 16 19 20 20 19 21 23 24 25 23 23 21 21 19 18 17 17 16 17
57 61 60 54 40 39 34 33 38 35 36 33 30 32 32 31 35 35 36 37 36 33 33 29 28 26 23 20 16 17 18 20 23 23 23 22 22 23 25 24 24 21 21 20 18 17 17
Wind_Direction
343 342 344 343 345 337 333 333 332 332 330 326 321 317 317 313 305 295 280 274 269 269 264 260 252 244 236 234 229 219 217 214 215 213 218 211 212 214 210 214 214 220 217 219 220 220 216
342 342 345 346 345 338 335 337 335 334 334 328 327 328 323 315 303 289 279 280 271 274 282 274 262 247 235 229 218 216 212 214 211 211 214 213 207 211 210 210 212 217 221 220 222 222 219
342 342 345 348 346 340 339 338 340 340 336 334 335 330 328 325 310 300 290 288 283 279 282 287 273 246 230 214 206 205 205 199 205 208 211 214 203 208 208 207 209 211 216 221 224 227 225
338 343 345 350 346 341 341 343 346 342 341 340 340 337 338 339 329 322 317 300 284 268 269 284 269 241 214 190 189 189 199 204 204 202 203 205 200 205 206 205 207 209 212 216 220 224 226
338 342 346 352 347 345 344 350 347 345 345 346 345 342 342 346 343 332 319 312 300 285 272 278 247 217 192 172 170 173 166 197 198 198 204 209 200 200 204 205 206 208 209 212 214 219 222
339 343 348 352 348 348 347 352 349 350 351 352 355 348 339 344 351 337 313 335 292 292 287 294 200 187 165 162 166 170 172 176 184 193 200 204 199 199 201 204 205 210 211 212 216 216 216
341 346 350 354 351 349 352 356 353 353 356 359 0 0 345 335 305 308 321 345 331 307 301 213 173 159 153 157 165 176 188 184 186 195 202 198 196 201 200 200 204 207 210 213 218 217 218
342 348 352 355 352 351 356 360 357 1 0 2 11 13 9 349 313 327 310 342 336 337 118 143 140 147 147 152 156 162 173 177 186 196 197 199 195 191 199 203 203 207 210 213 217 220 222
345 347 356 356 354 353 360 3 0 7 6 11 15 26 20 14 344 335 341 349 62 99 110 120 131 140 143 147 149 172 175 178 168 187 196 189 188 193 196 201 204 207 210 215 218 221 224
345 348 359 357 356 354 1 4 3 13 7 18 19 23 16 28 43 55 79 97 108 102 104 115 133 139 138 146 157 163 160 172 177 178 180 182 188 196 197 199 204 206 211 214 217 220 224
346 350 359 357 356 356 1 6 5 14 13 21 18 24 23 38 74 83 98 108 104 94 94 131 139 135 140 155 161 148 170 175 175 181 170 202 196 188 196 198 203 206 212 216 218 221 224
346 352 360 357 355 357 2 5 9 12 18 18 23 30 28 61 77 92 102 105 98 106 119 129 140 138 142 150 168 165 159 176 173 176 177 183 196 192 196 189 208 210 211 214 214 218 226
347 352 357 358 355 357 2 4 11 15 20 22 27 37 41 73 86 93 95 103 109 107 119 129 132 138 146 152 159 172 171 138 164 168 173 160 179 197 189 203 202 203 212 212 212 214 223
347 351 354 358 354 356 2 1 13 19 23 28 34 41 52 80 93 98 100 104 105 87 111 129 112 143 149 159 167 172 184 189 185 160 161 187 191 179 192 189 178 191 202 211 216 219 222
346 348 353 358 355 354 358 4 10 19 23 34 43 47 59 77 92 98 97 108 90 86 103 128 129 132 141 145 161 173 178 187 188 187 177 187 196 190 193 188 187 191 199 206 210 215 215
344 346 351 358 355 352 354 3 7 21 25 30 39 57 58 69 89 103 109 86 88 90 104 116 136 137 142 150 156 166 177 184 198 206 196 202 201 192 197 208 211 205 207 205 211 214 215
341 344 348 357 354 351 351 354 360 7 29 27 27 50 59 75 84 106 133 89 90 96 112 121 132 138 145 154 159 165 184 193 198 204 212 213 203 201 199 202 211 214 213 211 214 216 215
336 342 346 350 354 347 345 341 352 358 19 28 35 52 54 71 103 110 134 116 109 99 109 119 137 136 144 157 165 176 187 195 195 198 205 206 209 208 203 212 213 214 220 217 219 219 217
332 339 342 346 354 350 338 337 336 339 350 31 31 40 54 58 113 125 138 134 116 118 121 125 130 150 156 165 182 191 199 195 198 199 199 198 204 208 213 219 211 214 213 207 206 207 204
329 334 339 341 348 347 337 327 322 324 316 335 20 35 67 73 74 116 132 104 122 125 119 123 133 160 184 195 191 193 188 199 209 199 194 191 193 202 209 208 211 209 204 200 199 196 200
325 329 335 338 345 344 336 325 313 308 297 296 297 248 20 115 74 84 119 159 155 184 229 233 214 200 197 216 208 205 212 207 188 187 185 186 194 200 191 191 196 194 190 188 191 199 205
322 325 329 335 344 341 334 318 306 300 286 278 283 255 226 221 200 317 17 167 179 218 248 257 245 238 228 225 234 239 217 199 196 191 188 190 188 189 189 190 192 191 190 192 200 205 214
319 320 325 330 338 341 335 316 308 293 285 276 266 267 246 228 235 235 250 235 247 252 270 273 251 238 229 223 224 196 186 200 198 199 197 196 193 196 194 201 197 199 201 206 207 214 223
315 316 320 326 330 331 323 319 310 305 281 274 264 252 259 243 237 240 236 245 248 258 262 258 263 256 249 228 218 195 208 203 204 205 202 201 201 200 202 204 205 205 208 213 220 227 231
310 312 315 320 325 326 318 316 311 314 297 267 266 255 248 255 247 246 246 241 238 235 242 254 268 258 254 233 217 198 203 201 201 203 207 206 206 207 207 209 209 215 218 223 230 234 236
307 310 313 316 319 322 322 315 310 314 302 277 267 261 251 245 249 255 250 252 246 235 236 245 253 255 252 249 225 209 217 221 218 209 212 215 213 212 215 219 221 225 230 232 237 237 235
305 307 311 314 316 317 315 312 304 306 303 281 266 264 258 246 244 249 256 253 249 242 239 243 248 251 253 249 244 232 232 232 228 228 229 226 221 221 224 228 234 236 241 244 243 233 229
306 308 309 311 313 312 313 307 303 305 304 294 267 264 265 242 247 243 245 254 252 246 241 240 241 241 253 254 254 245 238 235 234 232 234 235 235 235 232 234 240 244 245 248 243 231 224
306 306 307 308 310 307 308 304 301 306 301 301 277 263 266 255 240 244 245 244 247 247 240 236 238 238 244 253 252 245 241 236 235 235 236 235 238 240 241 244 246 248 245 244 239 231 225